Regional Weather Roundup
Issued by NWS

Home | Current Version | Previous Version | Graphics & Text | Print | Product List | Glossary On
Versions: 1 2 3 4 5 6 7 8 9 10 11 12 13 14 15 16 17 18 19 20 21 22 23 24 25 26 27 28 29 30 31 32 33 34 35 36 37 38 39 40 41 42 43 44 45 46 47 48 49 50
000
ASUS45 KCYS 291810
RWRWY

WYOMING REGIONAL WEATHER ROUNDUP
NATIONAL WEATHER SERVICE CHEYENNE WY
1200 PM MDT FRI AUG 29 2014

NOTE:  "FAIR" INDICATES FEW OR NO CLOUDS BELOW 12,000 FEET
WITH NO SIGNIFICANT WEATHER AND/OR OBSTRUCTIONS TO VISIBILITY.

WYZ001-291900-
YELLOWSTONE NATIONAL PARK

CITY           SKY/WX    TMP DP  RH WIND       PRES   REMARKS
LK YELLOWSTONE   N/A     60  49  66 E7        30.29F
6HR MIN TEMP:  40; 6HR MAX TEMP:  60;

W YELLOWSTONE  NOT AVBL

$$
WYZ002>013-054>058-071-098>099-291900-
NORTHERN WYOMING

CITY           SKY/WX    TMP DP  RH WIND       PRES   REMARKS
JACKSON        SUNNY     66  46  48 S7        30.21F
CODY           SUNNY    N/A N/A N/A SE10      30.10F
GREYBULL       SUNNY     72  53  51 VRB3      30.07F
6HR MIN TEMP:  57; 6HR MAX TEMP:  72;

WORLAND        SUNNY     73  47  39 VRB3      30.08F
6HR MIN TEMP:  53; 6HR MAX TEMP:  74;

SHERIDAN       MOSUNNY   69  52  54 VRB5      30.09F
6HR MIN TEMP:  58; 6HR MAX TEMP:  69;

BUFFALO        SUNNY     66  52  60 VRB6      30.14F
6HR MIN TEMP:  56; 6HR MAX TEMP:  66; 6HR PCP: TRACE;

GILLETTE       PTSUNNY   71  54  54 NW8       30.09S
6HR MIN TEMP:  58; 6HR MAX TEMP:  71; 6HR PCP: TRACE;

HULETT         FAIR      68  52  56 MISG      30.09
NEWCASTLE      FAIR      72  45  37 NW18G29   30.06

$$
WYZ014>020-022>026-101>103-291900-
CENTRAL WYOMING

CITY           SKY/WX    TMP DP  RH WIND       PRES   REMARKS
BIG PINEY      SUNNY     68  44  42 S6        30.26F
6HR MIN TEMP:  40; 6HR MAX TEMP:  68;

PINEDALE       CLEAR     68  37  32 NW6       30.26F
DUBOIS         FAIR      68  37  32 E9        30.22F
LANDER         SUNNY     72  44  36 SE7       30.14F
6HR MIN TEMP:  54; 6HR MAX TEMP:  74;

RIVERTON       SUNNY     71  44  37 E9        30.15F
6HR MIN TEMP:  53; 6HR MAX TEMP:  72;

CASPER         SUNNY     72  44  36 SE3       30.14F
6HR MIN TEMP:  53; 6HR MAX TEMP:  73; 6HR PCP: TRACE;

DOUGLAS        SUNNY     74  48  39 W13       30.13S
6HR MIN TEMP:  50; 6HR MAX TEMP:  74; 6HR PCP: TRACE;


$$
WYZ021-027>030-104>119-291900-
SOUTHERN WYOMING

CITY           SKY/WX    TMP DP  RH WIND       PRES   REMARKS
EVANSTON       SUNNY     71  38  29 SW8       30.28S
6HR MIN TEMP:  48; 6HR MAX TEMP:  71;

KEMMERER       MOCLDY    70  37  30 W9        30.28F
FORT BRIDGER   FAIR      74  38  27 W9        30.30S
ROCK SPRINGS   SUNNY     69  38  32 W12G17    30.24F
6HR MIN TEMP:  49; 6HR MAX TEMP:  70;

DIXON          FAIR      70  48  46 SW6       30.26F
RAWLINS        SUNNY     68  41  37 VRB5      30.24F
6HR MIN TEMP:  53; 6HR MAX TEMP:  69;

SARATOGA       FAIR      66  46  48 NE6       30.26F
LARAMIE        SUNNY     65  44  46 N8        30.24F
6HR MIN TEMP:  43; 6HR MAX TEMP:  66;

CHEYENNE       MOSUNNY   69  45  41 N14G21    30.17F
6HR MIN TEMP:  48; 6HR MAX TEMP:  70;

TORRINGTON     PTSUNNY   73  53  49 NW9       30.05R
6HR MIN TEMP:  50; 6HR MAX TEMP:  74; 6HR PCP: TRACE;

PINE BLUFFS    FAIR      72  48  43 N14G22    30.12S

$$



USA.gov is the U.S. government's official web portal to all federal, state and local government web resources and services.